Regional Weather Roundup
Issued by NWS

Home | Current Version | Previous Version | Graphics & Text | Print | Product List | Glossary Off
Versions: 1 2 3 4 5 6 7 8 9 10 11 12 13 14 15 16 17 18 19 20 21 22 23 24 25 26 27 28 29 30 31 32 33 34 35 36 37 38 39 40 41 42 43 44 45 46 47 48 49 50

467
ASUS43 KTOP 221608
RWRKS

WEATHER ROUNDUP FOR KANSAS
NATIONAL WEATHER SERVICE GOODLAND KS
1000 AM CST SUN JAN 22 2017

NOTE:  "FAIR" INDICATES FEW OR NO CLOUDS BELOW 12,000 FEET WITH NO
SIGNIFICANT WEATHER AND/OR OBSTRUCTIONS TO VISIBILITY.

KSZ001>006-013>018-027>032-041>047-221700-
NORTHWEST KANSAS

CITY           SKY/WX    TMP DP  RH WIND       PRES   REMARKS
GOODLAND       SUNNY     35  27  72 NW17      29.89R WCI  25
HAYS           SUNNY     39  32  76 NW12      29.85R WCI  32
HILL CITY      SUNNY     39  32  76 N17       29.86R WCI  30
RUSSELL        SUNNY     39  32  76 NW13      29.81R WCI  31
$$

KSZ061>065-074>080-084>089-221700-
SOUTHWEST KANSAS

CITY           SKY/WX    TMP DP  RH WIND       PRES   REMARKS
DODGE CITY     SUNNY     38  33  82 NW10      29.85R WCI  31
ELKHART          N/A     39  25  57 NW15        N/A  WCI  31
GARDEN CITY    SUNNY     37  31  78 NW14      29.87R WCI  28
GREAT BEND     SUNNY     38  32  79 NW12      29.83R WCI  30
LIBERAL          N/A     39  32  75 NW14      29.90R WCI  31
PRATT          SUNNY     39  32  76 N16       29.81R WCI  30
$$

KSZ066>073-081>083-090>101-221700-
SOUTHEAST KANSAS

CITY           SKY/WX    TMP DP  RH WIND       PRES   REMARKS
CHANUTE        LGT RAIN  47  44  90 N16G28    29.65R
COFFEYVILLE    LGT RAIN  48  45  89 N26G35    29.60R
HUTCHINSON     SUNNY     44  33  65 N14G23    29.77R
MEDICINE LODGE   N/A     44  36  73 N15G23    29.77R
NEWTON         SUNNY     40  36  86 N20       29.74R WCI  30
PARSONS        LGT RAIN  48  44  86 N21G29    29.62R
WICHITA INTL   MOSUNNY   44  38  79 N16G26    29.73R
WICHITA JABRA  MOSUNNY   42  38  85 N20       29.73R
WICHITA MCCONL MOSUNNY   43  38  84 N17G23    29.72R
WINFIELD       PTSUNNY   47  41  80 N21G29    29.70R
$$

KSZ007>012-019>026-033>040-048>060-102>105-221700-
NORTHEAST KANSAS

CITY           SKY/WX    TMP DP  RH WIND       PRES   REMARKS
CONCORDIA      SUNNY     36  31  82 NW12      29.80R WCI  28
EMPORIA        CLOUDY    44  38  79 N13       29.72R
LAWRENCE       CLOUDY    41  36  82 N7        29.72R
MANHATTAN      SUNNY     41  33  73 VRB6      29.75R
MARYSVILLE     CLOUDY    32  32 100 N12       29.77R FOG     WCI  23
OLATHE IND     CLOUDY    44  41  89 N14       29.70R
OLATHE EXE     CLOUDY    44  41  89 N10       29.68R
SALINA         SUNNY     41  32  70 NW14      29.79R
TOPEKA BILLARD PTSUNNY   42  35  76 N8        29.73R
TOPEKA FORBES  PTSUNNY   42  34  73 N9        29.72R
$$




USA.gov is the U.S. government's official web portal to all federal, state and local government web resources and services.